GW3496 Weather Reports


time (UTC)temp
F
wind
direction
speed
knots
gust
knots
rain 1hr
in
rain 24hr
in
rain mn
in
humidity
%
barometer
mb
20260502184537 58 26 5.2 11.3 0.00 0.00 0.00 43 1010.5
20260502183033 58 299 2.6 8.7 0.00 0.00 0.00 45 1010.8
20260502181539 58 333 6.1 10.4 0.00 0.00 0.00 44 1011.0
20260502163046 56 171 5.2 10.4 0.00 0.00 0.00 46 1011.9
20260502161534 56 34 3.5 9.6 0.00 0.00 0.00 48 1011.9
20260502151552 55 24 3.5 8.7 0.00 0.00 0.00 51 1012.3
20260502123038 49 9 9.6 17.4 0.00 0.00 0.00 63 1011.8
20260502121538 49 302 7.8 14.8 0.00 0.00 0.00 64 1011.6
20260502114543 49 339 2.6 11.3 0.00 0.00 0.00 65 1011.9
20260502113041 49 334 6.1 11.3 0.00 0.00 0.00 66 1012.1
20260502111546 49 30 6.1 13.0 0.00 0.00 0.00 67 1012.0
20260502110053 49 348 6.1 16.5 0.00 0.00 0.00 67 1012.0
20260502104545 50 329 7.8 13.0 0.00 0.00 0.00 68 1011.8
20260502103043 50 19 4.3 9.6 0.00 0.00 0.00 69 1011.5
20260502101558 50 23 4.3 8.7 0.00 0.00 0.00 69 1011.0
20260502100123 51 5 2.6 9.6 0.00 0.00 0.00 71 1010.8
20260502090132 52 332 3.5 9.6 0.00 0.00 0.00 74 1010.2
20260502070111 53 31 2.6 4.3 0.00 0.00 0.00 77 1009.7
20260502064606 54 32 0.0 0.0 0.00 0.00 0.00 77 1009.9
20260502063108 54 43 0.0 0.0 0.00 0.00 0.00 76 1010.2
20260502061612 55 25 0.0 0.0 0.00 0.00 0.00 75 1010.3
20260502060112 55 28 0.0 0.0 0.00 0.00 0.00 74 1010.8
20260502055018 55 65 0.0 3.5 0.00 0.00 0.00 73 1010.6
20260502053029 55 32 1.7 4.3 0.00 0.00 0.00 72 1010.3
20260502051532 56 10 2.6 8.7 0.00 0.00 0.00 70 1010.4
20260502050032 57 342 5.2 8.7 0.00 0.00 0.00 66 1010.2
20260502044530 57 323 2.6 5.2 0.00 0.00 0.00 64 1010.2
20260502043031 57 340 0.9 3.5 0.00 0.00 0.00 61 1010.3
20260502041533 56 351 1.7 4.3 0.00 0.00 0.00 61 1010.2
20260502040038 56 343 1.7 5.2 0.00 0.00 0.00 62 1010.1
20260502034536 57 15 0.9 3.5 0.00 0.00 0.00 62 1009.6
20260502033034 59 87 0.0 1.7 0.00 0.00 0.00 56 1009.1
20260502031539 59 149 0.0 5.2 0.00 0.00 0.00 54 1009.1
20260502030034 60 189 1.7 5.2 0.00 0.00 0.00 52 1008.8
20260502024533 60 215 1.7 5.2 0.00 0.00 0.00 51 1008.9
20260502023036 60 196 3.5 5.2 0.00 0.00 0.00 50 1008.9
20260502021535 61 195 4.3 9.6 0.00 0.00 0.00 50 1009.0
20260502020041 61 173 1.7 5.2 0.00 0.00 0.00 48 1008.8
20260502014534 62 171 2.6 5.2 0.00 0.00 0.00 47 1008.8
20260502013033 62 214 1.7 7.0 0.00 0.00 0.00 46 1008.7
20260502011535 63 148 1.7 5.2 0.00 0.00 0.00 44 1008.6
20260502010038 64 176 0.9 4.3 0.00 0.00 0.00 43 1008.3
20260502004535 64 176 3.5 6.1 0.00 0.00 0.00 42 1008.0
20260502003033 65 150 2.6 7.8 0.00 0.00 0.00 41 1007.8
20260502001541 66 175 3.5 6.1 0.00 0.00 0.00 39 1007.7
20260502000041 67 121 2.6 5.2 0.00 0.00 0.00 38 1007.9
20260501234536 67 174 4.3 7.8 0.00 0.00 0.00 37 1007.7
20260501233035 68 180 6.1 10.4 0.00 0.00 0.00 36 1007.3
20260501231540 69 223 2.6 12.2 0.00 0.00 0.00 35 1007.5
20260501230038 68 195 5.2 12.2 0.00 0.00 0.00 35 1007.5
20260501224539 69 229 5.2 12.2 0.00 0.00 0.00 34 1007.7
20260501223035 69 199 9.6 18.2 0.00 0.00 0.00 34 1007.7
20260501221539 69 194 5.2 13.9 0.00 0.00 0.00 33 1007.8
20260501220046 69 144 7.8 14.8 0.00 0.00 0.00 31 1008.0
20260501214551 68 193 7.0 13.9 0.00 0.00 0.00 31 1008.1
20260501213039 68 212 8.7 15.6 0.00 0.00 0.00 32 1008.2
20260501211539 69 221 7.0 19.1 0.00 0.00 0.00 32 1008.3
20260501210039 70 254 3.5 13.9 0.00 0.00 0.00 31 1008.5
20260501204607 68 147 8.7 19.1 0.00 0.00 0.00 32 1008.3
20260501203040 68 178 7.8 13.0 0.00 0.00 0.00 32 1008.3
20260501201539 68 161 7.8 14.8 0.00 0.00 0.00 32 1008.8
20260501200041 68 165 5.2 19.1 0.00 0.00 0.00 33 1008.9
20260501194543 67 240 7.8 14.8 0.00 0.00 0.00 34 1009.3
20260501193051 68 179 7.0 20.0 0.00 0.00 0.00 33 1009.7
20260501191539 68 232 7.0 11.3 0.00 0.00 0.00 33 1010.0
20260501190038 67 246 9.6 16.5 0.00 0.00 0.00 34 1010.2